SB KEPS @ AMSAT $ORB08024.N 2Line Orbital Elements 08024.AMSAT
HR AMSAT ORBITAL ELEMENTS FOR AMATEUR SATELLITES IN NASA FORMAT FROM WA5QGD FORT WORTH,TX January 24, 2008 Send Subscribe/unsubscribe to KEPS at http://www.amsat.org/mailman/listinfo/keps BID: ORB08024.N
DECODE 2-LINE ELSETS WITH THE FOLLOWING KEY: 1 AAAAAU 00 0 0 BBBBB.BBBBBBBB .CCCCCCCC 00000-0 00000-0 0 DDDZ 2 AAAAA EEE.EEEE FFF.FFFF GGGGGGG HHH.HHHH III.IIII JJ.JJJJJJJJKKKKKZ KEY: A-CATALOGNUM B-EPOCHTIME C-DECAY D-ELSETNUM E-INCLINATION F-RAAN G-ECCENTRICITY H-ARGPERIGEE I-MNANOM J-MNMOTION K-ORBITNUM Z-CHECKSUM
TO ALL RADIO AMATEURS BT
AO-07 1 07530U 74089B 08024.04584029 -.00000027 00000-0 10000-3 0 860 2 07530 101.4871 060.2997 0011943 184.9644 175.1306 12.53573275518799 AO-10 1 14129U 83058B 08022.10031558 -.00000270 00000-0 10000-3 0 04647 2 14129 025.9369 234.4013 6036913 092.1624 333.5762 02.05872801185075 UO-11 1 14781U 84021B 08024.19695841 .00000373 00000-0 57069-4 0 5780 2 14781 098.1716 055.9317 0009131 174.1829 185.9490 14.79614008282414 RS-15 1 23439U 94085A 08023.91400468 -.00000039 00000-0 10000-3 0 01115 2 23439 064.8182 009.9674 0151468 150.4148 210.5451 11.27551795538585 FO-29 1 24278U 96046B 08024.54391470 -.00000059 00000-0 -22303-4 0 6903 2 24278 098.5808 319.7761 0349957 229.8831 127.1155 13.52934687564833 SO-33 1 25509U 98061B 08024.42910992 .00000443 00000-0 74511-4 0 1170 2 25509 031.4311 054.8470 0353758 201.5539 156.9852 14.28196931482903 AO-40 1 26609U 00072B 08022.30483958 -.00000410 00000-0 10000-3 0 9994 2 26609 007.3273 101.2332 7928087 044.3127 356.2712 01.25581889 33190 VO-52 1 28650U 05017B 08024.32381648 -.00000020 00000-0 42115-5 0 8386 2 28650 097.8082 094.7981 0026086 252.5295 107.3029 14.81412216147157 PO-63 1 29712U 07001D 08024.75304218 .00000552 00000-0 79778-4 0 1269 2 29712 097.8951 085.5428 0015061 128.0778 232.1784 14.79997288 56103 AO-16 1 20439U 90005D 08024.06348583 .00000017 00000-0 21747-4 0 2359 2 20439 098.2145 011.6580 0009961 249.0648 110.9482 14.31782536940152 LO-19 1 20442U 90005G 08024.06503961 -.00000087 00000-0 -17227-4 0 1587 2 20442 098.1912 020.5967 0011084 245.1244 114.8783 14.32021214940307 AO-27 1 22825U 93061C 08024.00479406 -.00000064 00000-0 -86594-5 0 8811 2 22825 098.3635 349.6253 0008378 336.4256 023.6532 14.29228459747030 IO-26 1 22826U 93061D 08024.01401989 -.00000000 00000-0 16294-4 0 5831 2 22826 098.3560 350.6105 0008619 332.4326 027.6402 14.29476386747122 PO-28 1 22829U 93061G 08023.86179389 -.00000001 00000-0 15547-4 0 8577 2 22829 098.3447 351.5945 0009111 303.6107 056.4203 14.30178599747357 GO-32 1 25397U 98043D 08024.13706236 .00000117 00000-0 70013-4 0 5082 2 25397 098.3858 066.3241 0000664 352.7890 007.3263 14.23138174495587 MO-46 1 26548U 00057D 08024.00470672 .00000063 00000-0 25490-4 0 58 2 26548 064.5543 219.4960 0012661 343.8458 016.2235 14.83221616396287 NO-44 1 26931U 01043C 08024.03936190 .00000067 00000-0 58587-4 0 7880 2 26931 067.0544 298.5723 0004756 270.0619 089.9930 14.29510030329661 SO-50 1 27607U 02058C 08024.57288348 -.00000033 00000-0 17077-4 0 5120 2 27607 064.5593 132.8138 0078148 308.2235 051.1837 14.71321195273699 CO-55 1 27844U 03031E 08024.27237116 .00000050 00000-0 43481-4 0 2199 2 27844 098.7181 034.5384 0009860 169.7706 190.3694 14.20556485236864 CO-57 1 27848U 03031J 08024.03980371 .00000066 00000-0 51016-4 0 1745 2 27848 098.7178 033.4362 0009523 174.5064 185.6212 14.20369620236805 AO-51 1 28375U 04025K 08024.16334624 .00000007 00000-0 15117-4 0 143 2 28375 098.0868 056.7785 0083024 232.8417 126.5166 14.40594707187529 CO-56 1 28941U 06005C 08024.81637952 .00021780 25906-5 19258-3 0 7867 2 28941 098.1067 116.7822 0193196 202.6450 156.6278 15.48924939107638 HO-59 1 29484U 06041F 08024.81997618 .00065597 39042-5 28511-3 0 661 2 29484 098.2556 116.1740 0138586 179.8850 180.2287 15.71755703 75633 NO-61 1 29664U 06055F 07359.16654419 .14620719 12705-4 12723-3 0 7381 2 29664 051.6179 150.0690 0003189 248.8461 111.8136 16.51627846 58777 CP4 1 31122U 07012F 08024.27589392 .00000551 00000-0 13192-3 0 2441 2 31122 098.0599 095.1327 0086582 059.5834 301.3815 14.55079769 41000 CP3 1 31128U 07012M 08024.13243379 -.00000046 00000-0 00000 0 0 2398 2 31128 098.0583 093.5835 0103776 063.6463 297.5373 14.51907235 40888 LIBERT 1 31129U 07012N 08024.66663921 .00000339 00000-0 89029-4 0 6971 2 31129 098.0586 094.1250 0103435 061.9602 299.1988 14.51998234 40944 NOAA-10 1 16969U 86073A 08024.46946373 -.00000024 00000-0 84175-5 0 9774 2 16969 098.7335 046.6455 0011639 242.0236 117.9761 14.27348359110793 NOAA-11 1 19531U 88089A 08024.26750638 -.00000220 00000-0 -91155-4 0 120 2 19531 098.8028 115.6091 0012130 119.1533 241.0842 14.14862758997416 NOAA-12 1 21263U 91032A 08024.26103951 -.00000031 00000-0 56950-5 0 5171 2 21263 098.7631 026.2471 0012381 182.4627 177.6521 14.25513339867744 MET-3/5 1 21655U 91056A 08024.24362814 .00000051 00000-0 10000-3 0 3819 2 21655 082.5493 206.7540 0014234 019.8853 340.2822 13.17014005790508 MET-2/21 1 22782U 93055A 08024.00177191 .00000109 00000-0 84932-4 0 455 2 22782 082.5446 226.7312 0022111 340.8961 019.1370 13.83625218727054 OKEAN-4 1 23317U 94066A 08024.08631984 .00000096 00000-0 89359-5 0 4870 2 23317 082.5388 090.4663 0020516 243.2394 116.6729 14.82571988716785 NOAA-14 1 23455U 94089A 08024.46159673 .00000312 00000-0 18864-3 0 9899 2 23455 098.9642 096.5301 0009456 189.5381 170.5648 14.13734943673907 SICH-1 1 23657U 95046A 08024.07661042 .00000120 00000-0 12269-4 0 2863 2 23657 082.5244 231.4108 0022405 235.3098 124.6034 14.81545933668735 NOAA-15 1 25338U 98030A 08024.47213990 -.00000076 00000-0 -14264-4 0 3260 2 25338 098.5454 020.0759 0011559 102.7671 257.4817 14.24682804504198 RESURS 1 25394U 98043A 08024.16852123 -.00000027 00000-0 64466-5 0 8393 2 25394 098.4083 074.5857 0000715 288.7485 071.3618 14.24152373495802 FENGYUN1 1 25730U 99025A 08024.55705102 .00000540 00000-0 34389-3 0 3231 2 25730 098.7120 005.3029 0020262 217.1754 142.8012 14.07672738448610 OKEAN-0 1 25860U 99039A 08024.00069475 .00000058 00000-0 16083-4 0 2714 2 25860 097.7403 021.0473 0001762 052.9676 307.1685 14.73498550458015 NOAA-16 1 26536U 00055A 08024.48757357 -.00000087 00000-0 -21652-4 0 7751 2 26536 099.1429 010.5821 0009806 273.2479 086.7569 14.12466931378345 NOAA-17 1 27453U 02032A 08024.44392051 .00000116 00000-0 69154-4 0 7737 2 27453 098.5542 093.1496 0012158 166.1366 194.0182 14.23943745290204 NOAA-18 1 28654U 05018A 08024.48045529 -.00000097 00000-0 -29277-4 0 2857 2 28654 098.8545 327.3019 0014634 006.4935 353.6430 14.11129343138067 HUBBLE 1 20580U 90037B 08023.86469684 .00000326 00000-0 12420-4 0 00667 2 20580 028.4677 191.0219 0003500 281.0769 078.9429 15.00330025773134 UARS 1 21701U 91063B 08024.22187912 .00003828 00000-0 65725-4 0 2742 2 21701 056.9762 073.2898 0081303 258.9448 100.2454 15.50346689900002 PO-34 1 25520U 98064B 08024.47809875 .00000309 00000-0 54631-5 0 9168 2 25520 028.4604 067.5402 0005742 150.5048 209.5873 15.17120664511166 ISS 1 25544U 98067A 08025.05477624 .00018228 00000-0 11137-3 0 7805 2 25544 051.6407 039.6016 0005471 327.5854 129.2027 15.77436134525782 OO-38 1 26063U 00004C 08024.00025666 -.00000025 00000-0 11860-4 0 1192 2 26063 100.2122 072.2791 0036572 258.4379 101.2685 14.35825738418738 UWE-1 1 28892U 05043C 08024.37041592 .00000102 00000-0 31113-4 0 9576 2 28892 098.1132 281.3405 0018152 139.4302 220.8227 14.59585777119470 CO-58 1 28895U 05043F 08024.27388202 -.00000212 00000-0 -34725-4 0 9318 2 28895 098.1169 281.5451 0018606 139.6755 220.5815 14.59626345119347 NCUBE2 1 28897U 05043H 08023.70683376 .00000127 00000-0 36219-4 0 4607 2 28897 098.1119 280.9290 0017800 143.1367 217.1064 14.59795888111543 FCAL 1 29667U 06055J 08024.90397894 .00029696 11751-4 63584-4 0 6964 2 29667 051.6333 003.3456 0010129 128.4981 231.6944 15.99757259 63344 FALCON 1 30776U 07006E 08024.22452531 .00000405 00000-0 32706-4 0 2336 2 30776 035.4350 312.5769 0001273 246.4307 113.6276 15.02861616 48326 MAST 1 31126U 07012K 08023.22253305 .00000058 00000-0 23784-4 0 2385 2 31126 098.0592 093.3698 0095812 064.5337 296.5776 14.53394447 40818 CAPE1 1 31130U 07012P 08024.68018317 .00000011 00000-0 13274-4 0 2194 2 31130 098.0609 094.1150 0103755 062.0165 299.1494 14.51924186 40758 /EX
participants (1)
-
Ray Hoad